This is the latest recevied weather packets stored in our database for station/object K1BWE-1. If no packets are shown the sender has not sent any weather packets the latest 10 day(s).
| Time | Temp. | Humidity | Pressure | Rain* | Wind** | Luminosity | Snow |
|---|---|---|---|---|---|---|---|
| 1778155939 | 12.22° C | 55% | 1016.1 hPa | 0 mm | - | 0 W/m² | - |
| 1778155635 | 12.22° C | 55% | 1015.8 hPa | 0 mm | - | 0 W/m² | - |
| 1778155333 | 11.67° C | 56% | 1016.1 hPa | 0 mm | - | 0 W/m² | - |
| 1778155028 | 11.67° C | 56% | 1016 hPa | 0 mm | - | 0 W/m² | - |
| 1778154724 | 11.11° C | 58% | 1016.1 hPa | 0 mm | - | 0 W/m² | - |
| 1778154420 | 11.11° C | 57% | 1016.1 hPa | 0 mm | - | 0 W/m² | - |
| 1778154118 | 11.67° C | 58% | 1015.9 hPa | 0 mm | - | 0 W/m² | - |
| 1778153815 | 11.67° C | 61% | 1016.1 hPa | 0 mm | - | 0 W/m² | - |
| 1778153512 | 12.22° C | 53% | 1016 hPa | 0 mm | - | 0 W/m² | - |
| 1778153210 | 12.22° C | 52% | 1016.3 hPa | 0 mm | - | 0 W/m² | - |
| 1778152906 | 12.78° C | 52% | 1016 hPa | 0 mm | - | 0 W/m² | - |
| 1778152604 | 12.78° C | 51% | 1016.4 hPa | 0 mm | - | 0 W/m² | - |
| 1778152300 | 12.78° C | 50% | 1016.1 hPa | 0 mm | - | 0 W/m² | - |
| 1778151996 | 12.78° C | 49% | 1016 hPa | 0 mm | - | 0 W/m² | - |
| 1778151693 | 13.33° C | 48% | 1016.2 hPa | 0 mm | - | 0 W/m² | - |
| 1778151390 | 13.33° C | 47% | 1016.2 hPa | 0 mm | - | 0 W/m² | - |
| 1778151086 | 12.78° C | 48% | 1016.1 hPa | 0 mm | - | 0 W/m² | - |
| 1778150783 | 12.78° C | 49% | 1016.2 hPa | 0 mm | - | 0 W/m² | - |
| 1778150480 | 12.78° C | 51% | 1016.1 hPa | 0 mm | - | 0 W/m² | - |
| 1778150176 | 12.78° C | 51% | 1016.4 hPa | 0 mm | - | 0 W/m² | - |
| 1778149873 | 13.33° C | 59% | 1016.5 hPa | 0 mm | - | 0 W/m² | - |
| 1778149569 | 12.78° C | 48% | 1016.5 hPa | 0 mm | - | 0 W/m² | - |
| 1778149265 | 12.78° C | 52% | 1016.5 hPa | 0 mm | - | 0 W/m² | - |
| 1778148961 | 12.78° C | 53% | 1016.6 hPa | 0 mm | - | 0 W/m² | - |
| 1778148657 | 13.33° C | 54% | 1016.4 hPa | 0 mm | - | 0 W/m² | - |
* Rain latest hour (hover to see other rain measurements)
** Current wind speed in m/s (hover to see current wind gust speed)